ARIANE 40 R/B (21610 NORAD) Tracking and Keplerian Element Data

This shows tracking and keplerian element data for the satellite.

Feedback or suggestion? Click here.




ElementValue
Catalog21610
NameARIANE 40 R/B
Epoch Orbit43868
Epoch Day348.81011014
Epoch Year2018
RAAN51.4422
Inclination98.5344
Eccentricity0.0004309
Argument of Perigee107.9607
Mean Anonmoly2.1084
Mean Motion14.40858553
Decay Rate-9E-08
L11 21610U 91050F 18348.81011014 -.00000009 00000-0 10918-4 0 9998
L22 21610 98.5344 51.4422 0004309 107.9607 2.1084 14.40858553438686

Live tracking and technical data element details for ARIANE 40 R/B (NORAD 21610). ARIANE 40 R/B can be tracked NOW for your location showing map with azimuth and elevation plus other details from your city location.

Track the satellite on the map from your city or location and see movement details for azimuth, elevation, latitude, longitude, range, height, and movement on the map or in text.







IsCatalogInMostPopularTable: catalog: 21610, numindb: 47
Update: records affected: 1



GetName: 21610 ARIANE 40 R/B

Hit Count: updated at: Sat, 15 Dec 2018 13:23:44 GMT